Home > Weather > Soest > Past weeks

Flag for Germany Past Weather in Soest, North Rhine-Westphalia, Germany — Yesterday and Last 2 Weeks

Now
57 °F

Clear.


Feels Like: 56 °F
Forecast: 59 / 73 °F
Wind: 6 mph from Southeast

Location: Paderborn / Lippstadt

Current Time: May 28, 2016 at 2:19:10 AM

Latest Report: May 28, 2016 at 1:50 AM


Visibility: 10 mi

Pressure: 29.98 "Hg

Humidity: 94%

Dew Point: 55 °F

Location of SoestLocation

Past Weather in Soest — Graph

°F

Soest Temperature Yesterday

Maximum temperature yesterday: 70 °F (at 1:50 PM)
Minimum temperature yesterday: 54 °F (at 5:20 AM)
Average temperature yesterday: 62 °F

High & Low Weather Summary for the Past Weeks

 TemperatureHumidityPressure
High79 °F (May 22, 1:50 PM)100% (May 13, 3:20 AM)30.09 "Hg (May 13, 3:20 AM)
Low37 °F (May 16, 4:20 AM)27% (May 13, 3:50 PM)29.56 "Hg (May 13, 12:20 AM)
Average55 °F75%29.92 "Hg
* Reported May 13 12:20 AM — May 28 12:50 AM, Soest, Weather by CustomWeather, © 2016

Note: Actual official high and low records may vary slightly from our data, if they occured in-between our weather recording intervals... More about our weather records

Advertising

Soest Weather History for the Previous 24 Hours

Scroll right to see more
 ConditionsComfort  
Time TempWeatherWind HumidityBarometerVisibility
12:50 AM
Sat, May 28
57 °FClear.6 mph94%29.98 "Hg10 mi
12:20 AM57 °FClear.7 mph94%29.98 "Hg10 mi
11:50 PM
Fri, May 27
57 °FClear.2 mph100%29.98 "Hg10 mi
11:20 PM57 °FClear.1 mph100%30.01 "Hg10 mi
10:50 PM57 °FClear.1 mph100%30.01 "Hg10 mi
10:20 PM61 °FScattered clouds.2 mph94%30.01 "HgN/A
9:50 PM61 °FScattered clouds.6 mph100%29.98 "HgN/A
9:20 PM63 °FScattered clouds.1 mph88%29.98 "HgN/A
8:50 PM64 °FScattered clouds.2 mph78%29.98 "HgN/A
8:20 PM64 °FScattered clouds.2 mph83%29.98 "HgN/A
7:50 PM64 °FScattered clouds.3 mph78%29.98 "HgN/A
7:20 PM64 °FScattered clouds.8 mph78%29.98 "HgN/A
6:50 PM70 °FPassing clouds.3 mph53%29.98 "HgN/A
6:20 PM70 °FSunny.3 mph53%29.98 "Hg10 mi
5:50 PM70 °FPassing clouds.3 mph53%29.98 "HgN/A
5:20 PM70 °FPassing clouds.5 mph50%29.98 "HgN/A
4:50 PM70 °FPassing clouds.5 mph50%29.98 "HgN/A
4:20 PM70 °FPassing clouds.6 mph53%29.98 "HgN/A
3:50 PM70 °FPassing clouds.6 mph57%30.01 "HgN/A
3:20 PM68 °FPassing clouds.3 mph53%30.01 "HgN/A
2:50 PM68 °FPassing clouds.7 mph56%30.01 "HgN/A
2:20 PM70 °FSunny.3 mph53%30.01 "Hg10 mi
1:50 PM70 °FSunny.2 mph50%30.01 "Hg10 mi
1:20 PM68 °FPassing clouds.3 mph56%30.01 "HgN/A
12:50 PM66 °FSunny.5 mph60%30.01 "Hg10 mi
12:20 PM66 °FPassing clouds.5 mph60%30.01 "HgN/A
11:50 AM64 °FPassing clouds.5 mph64%30.01 "HgN/A
11:20 AM66 °FPassing clouds.5 mph60%30.01 "HgN/A
10:50 AM64 °FSunny.6 mph68%30.01 "Hg10 mi
10:20 AM61 °FSunny.7 mph77%30.01 "Hg10 mi
9:50 AM59 °FSunny.8 mph82%30.01 "Hg10 mi
9:20 AM59 °FSunny.8 mph82%30.01 "Hg10 mi
8:50 AM59 °FClear.8 mph82%30.01 "Hg6 mi
8:20 AM57 °FSunny.7 mph94%30.01 "Hg10 mi
7:50 AM57 °FSunny.6 mph88%30.01 "Hg10 mi
7:20 AM55 °FSunny.2 mph100%30.01 "Hg10 mi
6:50 AM55 °FSunny.5 mph94%30.01 "Hg10 mi
6:20 AM54 °FSunny.2 mph100%30.01 "Hg10 mi
5:50 AM54 °FClear.2 mph100%30.01 "Hg10 mi
5:20 AM54 °FClear.5 mph100%29.98 "Hg10 mi
4:50 AM55 °FClear.5 mph94%29.98 "Hg10 mi
4:20 AM55 °FClear.5 mph88%30.01 "Hg10 mi
3:50 AM55 °FClear.6 mph88%30.01 "Hg10 mi
3:20 AM55 °FClear.5 mph88%29.98 "Hg10 mi
2:50 AM55 °FClear.3 mph88%29.98 "Hg10 mi
2:20 AM57 °FClear.6 mph82%29.98 "Hg10 mi
Weather by CustomWeather, © 2016

See weather overviewHow to use our weather pages